FW9105 Weather Reports


Display with metric or nautical units.
time (UTC)temp
F
wind
direction
speed
MPH
gust
MPH
rain 1hr
in
rain 24hr
in
rain mn
in
humidity
%
barometer
mb
20260504050001 53 283 2.0 5.0 0.00 0.00 0.00 56 1011.1
20260504044459 55 227 1.0 5.0 0.00 0.00 0.00 54 1010.9
20260504042959 55 272 1.0 3.0 0.00 0.00 0.00 53 1010.7
20260504041459 55 360 3.0 4.0 0.00 0.00 0.00 53 1010.9
20260504040005 55 286 3.0 4.0 0.00 0.00 0.00 52 1010.9
20260504034500 54 286 2.0 3.0 0.00 0.00 0.00 52 1010.8
20260504033001 54 284 2.0 3.0 0.00 0.00 0.00 53 1011.0
20260504031501 54 286 1.0 3.0 0.00 0.00 0.00 53 1011.2
20260504030003 54 286 2.0 3.0 0.00 0.00 0.00 53 1011.0
20260504024500 54 321 2.0 3.0 0.00 0.00 0.00 53 1011.1
20260504022959 54 296 3.0 4.0 0.00 0.00 0.00 53 1011.0
20260504020002 55 295 4.0 8.0 0.00 0.00 0.00 52 1010.7
20260504014501 56 300 3.0 8.0 0.00 0.00 0.00 51 1010.5
20260504013042 56 264 4.0 8.0 0.00 0.00 0.00 50 1010.3
20260504011501 56 279 4.0 9.0 0.00 0.00 0.00 49 1010.2
20260504010001 57 233 5.0 11.0 0.00 0.00 0.00 49 1010.1
20260504002959 58 229 2.0 8.0 0.00 0.00 0.00 48 1009.8
20260504001500 58 207 2.0 5.0 0.00 0.00 0.00 48 1009.8
20260503235959 58 208 2.0 5.0 0.00 0.00 0.00 48 1009.5
20260503234500 59 205 2.0 5.0 0.00 0.00 0.00 47 1009.3
20260503232959 60 199 2.0 4.0 0.00 0.00 0.00 46 1009.3
20260503231459 60 200 2.0 4.0 0.00 0.00 0.00 46 1009.4
20260503230002 60 210 2.0 5.0 0.00 0.00 0.00 43 1009.3
20260503224501 61 209 2.0 4.0 0.00 0.00 0.00 43 1009.4
20260503223001 62 217 0.0 3.0 0.00 0.00 0.00 44 1009.5
20260503221500 62 233 1.0 5.0 0.00 0.00 0.00 43 1009.5
20260503220002 62 140 2.0 6.0 0.00 0.00 0.00 46 1009.4
20260503214500 64 202 1.0 5.0 0.00 0.00 0.00 43 1009.6
20260503213001 64 183 2.0 5.0 0.00 0.00 0.00 47 1009.5
20260503211501 65 308 2.0 5.0 0.00 0.00 0.00 43 1009.7
20260503210001 65 183 1.0 4.0 0.00 0.00 0.00 41 1009.7
20260503202959 64 211 2.0 5.0 0.00 0.00 0.00 42 1010.1
20260503201500 64 139 2.0 5.0 0.00 0.00 0.00 46 1010.5
20260503200002 64 185 2.0 6.0 0.00 0.00 0.00 42 1010.6
20260503194459 63 340 3.0 5.0 0.00 0.00 0.00 50 1011.0
20260503193000 62 207 3.0 6.0 0.00 0.00 0.00 44 1011.1
20260503191459 63 218 2.0 5.0 0.00 0.00 0.00 42 1011.3
20260503190000 62 190 2.0 7.0 0.00 0.00 0.00 49 1011.4
20260503184500 62 140 2.0 5.0 0.00 0.00 0.00 43 1011.5
20260503183000 61 234 3.0 8.0 0.00 0.00 0.00 45 1011.6
20260503171501 62 51 1.0 3.0 0.00 0.00 0.00 51 1012.4
20260503081458 43 336 2.0 4.0 0.00 0.00 0.00 73 1010.4
20260503071459 41 355 1.0 3.0 0.00 0.00 0.00 78 1009.7